This is the latest recevied weather packets stored in our database for station/object F5LKO-13. If no packets are shown the sender has not sent any weather packets the latest 10 day(s).
| Time | Temp. | Humidity | Pressure | Rain* | Wind** | Luminosity | Snow |
|---|---|---|---|---|---|---|---|
| 1778034019 | 10° C | 99% | 1013.7 hPa | 1.02 mm | - | 0 W/m² | - |
| 1778033714 | 10° C | 99% | 1013.8 hPa | 1.02 mm | - | 0 W/m² | - |
| 1778033406 | 10° C | 99% | 1013.9 hPa | 0.51 mm | - | 0 W/m² | - |
| 1778033100 | 10° C | 99% | 1013.9 hPa | 0 mm | - | 0 W/m² | - |
| 1778032802 | 10° C | 99% | 1013.9 hPa | 0 mm | - | 0 W/m² | - |
| 1778032487 | 10° C | 99% | 1013.9 hPa | 7.37 mm | - | 0 W/m² | - |
| 1778032181 | 10° C | 99% | 1013.8 hPa | 7.37 mm | - | 0 W/m² | - |
| 1778031875 | 10° C | 99% | 1014 hPa | 6.35 mm | - | 0 W/m² | - |
| 1778031569 | 10.56° C | 99% | 1013.8 hPa | 4.06 mm | - | 0 W/m² | - |
| 1778031263 | 10.56° C | 99% | 1014 hPa | 0 mm | - | 0 W/m² | - |
| 1778030966 | 10.56° C | 99% | 1013.9 hPa | 0 mm | - | 0 W/m² | - |
| 1778030651 | 10° C | 99% | 1014 hPa | 0 mm | - | 0 W/m² | - |
| 1778030345 | 10.56° C | 99% | 1013.9 hPa | 0 mm | - | 0 W/m² | - |
| 1778030039 | 10.56° C | 99% | 1014 hPa | 0 mm | - | 0 W/m² | - |
| 1778029733 | 10.56° C | 99% | 1014.1 hPa | 0 mm | - | 0 W/m² | - |
| 1778029427 | 10.56° C | 99% | 1014.2 hPa | 0 mm | - | 0 W/m² | - |
| 1778029131 | 10.56° C | 99% | 1014.2 hPa | 0 mm | - | 0 W/m² | - |
| 1778028816 | 10.56° C | 99% | 1014.2 hPa | 0 mm | - | 0 W/m² | - |
| 1778028510 | 10.56° C | 99% | 1014.4 hPa | 0 mm | - | 0 W/m² | - |
| 1778028204 | 10.56° C | 99% | 1014.3 hPa | 0 mm | - | 0 W/m² | - |
| 1778027898 | 10.56° C | 99% | 1014.5 hPa | 0 mm | - | 0 W/m² | - |
| 1778027592 | 10.56° C | 99% | 1014.5 hPa | 0 mm | - | 0 W/m² | - |
| 1778027294 | 10.56° C | 99% | 1014.4 hPa | 0 mm | - | 0 W/m² | - |
| 1778026979 | 10.56° C | 99% | 1014.5 hPa | 0 mm | - | 0 W/m² | - |
| 1778026673 | 10.56° C | 99% | 1014.5 hPa | 0 mm | - | 0 W/m² | - |
* Rain latest hour (hover to see other rain measurements)
** Current wind speed in m/s (hover to see current wind gust speed)